DHABISAT (MYSAT-2) (49016 NORAD) Tracking and Keplerian Element Data

This shows tracking and keplerian element data for the satellite.

Feedback or suggestion? Click here.




ElementValue
Catalog49016
NameDHABISAT (MYSAT-2)
Epoch Orbit464
Epoch Day210.84978158
Epoch Year2021
RAAN137.4683
Inclination51.6365
Eccentricity0.000711
Argument of Perigee345.6158
Mean Anonmoly14.4615
Mean Motion15.22911411
Decay Rate1.726E-05
L11 49016U 21013F 21210.84978158 .00001726 00000-0 86676-4 0 9996
L22 49016 51.6365 137.4683 0007110 345.6158 14.4615 15.22911411 4643

Live tracking and technical data element details for DHABISAT (MYSAT-2) (NORAD 49016). DHABISAT (MYSAT-2) can be tracked NOW for your location showing map with azimuth and elevation plus other details from your city location.

Track the satellite on the map from your city or location and see movement details for azimuth, elevation, latitude, longitude, range, height, and movement on the map or in text.







IsCatalogInMostPopularTable: catalog: 49016, numindb: 2
Update: records affected: 1



GetName: 49016 DHABISAT (MYSAT-2)

Hit Count: updated at: Sat, 31 Jul 2021 14:26:58 GMT